Location: Ailly
(50.0793°N, 1.9944°E)
Time: 02:33:27
(UTC+00:00)

Cosmos 2278 Rocket - Pass Details

Date: 15 January 2026
Orbit: 839 x 846 km, 71.0° (Epoch: 6 February)

Event Time Altitude Azimuth Distance (km) Brightness Sun altitude
Rises 06:39:37 0° 227° (SW) 3,385 5.1 -10.2°
Reaches altitude 10° 06:42:09 10° 234° (SW) 2,455 4.3 -9.8°
Maximum altitude 06:47:34 47° 307° (NW) 1,110 2.4 -9.0°
Drops below altitude 10° 06:53:02 10° 21° (NNE) 2,472 4.6 -8.2°
Sets 06:55:36 0° 28° (NNE) 3,412 5.4 -7.8°
